This demonstration page uses our WeatherBlox Daily Observations layout. Learn more.

Hourly Observations for February 15, 2015

Temp ( °F °C ) Dew Point ( °F °C ) Humidity (%) Winds ( mph kmh ) Pressure ( in mb ) Visibility ( mi km ) Precip ( " mm )
12:15 am 00:15 Mostly Cloudy 17 -8.4 3 -16.1 54 54 ESE 12 19 30.48 1032 10 16.0934 0 0
12:35 am 00:35 Partly Cloudy 17 -8.4 4 -15.8 56 56 E 12 19 30.45 1031 10 16.0934 0 0
12:55 am 00:55 Partly Cloudy 17 -8.3 4 -15.8 55 55 ESE 10 17 30.45 1031 10 16.0934 0 0
1:15 am 01:15 Partly Cloudy 17 -8.3 4 -15.7 56 56 ESE 10 17 30.45 1031 10 16.0934 0 0
1:35 am 01:35 Mostly Cloudy 17 -8.3 4 -15.5 56 56 ESE 9 15 30.45 1031 10 16.0934 0 0
1:55 am 01:55 Cloudy 17 -8.2 3 -15.9 54 54 E 12 19 30.45 1031 10 16.0934 0 0
2:15 am 02:15 Cloudy 17 -8.1 4 -15.8 54 54 E 10 17 30.45 1031 10 16.0934 0 0
2:35 am 02:35 Cloudy 18 -8 3 -16 53 53 E 12 19 30.45 1031 10 16.0934 0 0
2:55 am 02:55 Cloudy 17 -8.1 3 -16 53 53 ESE 14 22 30.45 1031 10 16.0934 0 0
3:15 am 03:15 Cloudy 17 -8.1 3 -15.9 54 54 ESE 13 20 30.42 1030 10 16.0934 0 0
3:35 am 03:35 Cloudy 17 -8.2 2 -16.5 52 52 ESE 12 19 30.45 1031 10 16.0934 0 0
3:55 am 03:55 Cloudy 17 -8.1 3 -16.3 52 52 ESE 10 17 30.42 1030 10 16.0934 0 0
4:15 am 04:15 Cloudy 17 -8.1 4 -15.7 55 55 E 12 19 30.42 1030 10 16.0934 0 0
4:35 am 04:35 Cloudy 17 -8.2 5 -15.1 58 58 E 12 19 30.42 1030 10 16.0934 0 0
4:55 am 04:55 Cloudy 17 -8.3 4 -15.6 56 56 ESE 10 17 30.42 1030 10 16.0934 0 0
5:15 am 05:15 Cloudy 17 -8.5 3 -15.9 56 56 E 10 17 30.42 1030 10 16.0934 0 0
5:35 am 05:35 Cloudy 17 -8.5 5 -15.2 59 59 E 12 19 30.42 1030 10 16.0934 0 0
5:55 am 05:55 Cloudy 16 -8.7 5 -14.9 61 61 E 12 19 30.39 1029 10 16.0934 0 0
6:15 am 06:15 Cloudy 16 -9 4 -15.6 59 59 E 12 19 30.39 1029 10 16.0934 0 0
6:35 am 06:35 Cloudy 16 -9 5 -15 62 62 ESE 13 20 30.39 1029 10 16.0934 0 0
6:55 am 06:55 Cloudy 16 -9.1 5 -15 63 63 ESE 12 19 30.39 1029 10 16.0934 0 0
7:15 am 07:15 Cloudy 15 -9.2 5 -14.9 64 64 ESE 12 19 30.39 1029 10 16.0934 0 0
7:35 am 07:35 Cloudy 15 -9.3 5 -15 64 64 ESE 9 15 30.39 1029 10 16.0934 0 0
7:55 am 07:55 Cloudy 15 -9.4 5 -14.8 65 65 ESE 10 17 30.39 1029 10 16.0934 0 0
8:15 am 08:15 Cloudy 15 -9.5 5 -15 65 65 E 9 15 30.39 1029 10 16.0934 0 0
8:35 am 08:35 Cloudy 15 -9.5 5 -15 65 65 ESE 7 11 30.42 1030 10 16.0934 0 0
8:55 am 08:55 Cloudy 15 -9.6 5 -15.2 64 64 E 6 9 30.42 1030 10 16.0934 0 0
9:15 am 09:15 Cloudy 15 -9.6 4 -15.3 64 64 ESE 8 13 30.42 1030 10 16.0934 0 0
9:35 am 09:35 Cloudy 15 -9.4 5 -15.2 63 63 ESE 6 9 30.42 1030 10 16.0934 0 0
9:55 am 09:55 Cloudy 15 -9.2 5 -15.2 62 62 ESE 6 9 30.42 1030 10 16.0934 0 0
10:15 am 10:15 Cloudy 15 -9.2 4 -15.3 62 62 Calm 30.42 1030 10 16.0934 0 0
10:35 am 10:35 Cloudy 15 -9.2 4 -15.5 61 61 Calm 30.45 1031 10 16.0934 0 0
10:55 am 10:55 Cloudy 16 -9.1 4 -15.3 61 61 Calm 30.42 1030 10 16.0934 0 0
11:15 am 11:15 Cloudy 16 -8.9 4 -15.4 60 60 S 3 6 30.42 1030 10 16.0934 0 0
11:35 am 11:35 Cloudy 17 -8.6 4 -15.3 59 59 Calm 30.42 1030 10 16.0934 0 0
11:55 am 11:55 Cloudy 17 -8.6 4 -15.6 57 57 Calm 30.42 1030 10 16.0934 0 0
12:15 pm 12:15 Cloudy 17 -8.5 4 -15.5 57 57 Calm 30.42 1030 10 16.0934 0 0
12:35 pm 12:35 Cloudy 17 -8.2 4 -15.3 57 57 SSE 6 9 30.39 1029 10 16.0934 0 0
12:55 pm 12:55 Cloudy 17 -8.1 4 -15.4 56 56 SSE 3 6 30.39 1029 10 16.0934 0 0
1:15 pm 13:15 Cloudy 18 -8 4 -15.3 56 56 Calm 30.39 1029 10 16.0934 0 0
1:35 pm 13:35 Cloudy 18 -8 4 -15.5 55 55 Calm 30.39 1029 10 16.0934 0 0
1:55 pm 13:55 Cloudy 19 -7.5 5 -15.1 55 55 Calm 30.36 1028 10 16.0934 0 0
2:15 pm 14:15 Cloudy 19 -7.2 5 -15.1 54 54 NNW 3 6 30.33 1027 10 16.0934 0 0
2:35 pm 14:35 Cloudy 19 -7 5 -15.2 52 52 Calm 30.33 1027 10 16.0934 0 0
2:55 pm 14:55 Cloudy 20 -6.6 5 -15.1 51 51 Calm 30.33 1027 10 16.0934 0 0
3:15 pm 15:15 Cloudy 21 -6.3 5 -15 51 51 NNW 3 6 30.3 1026 10 16.0934 0 0
3:35 pm 15:35 Cloudy 21 -6 6 -14.4 52 52 NNW 3 6 30.3 1026 10 16.0934 0 0
3:55 pm 15:55 Cloudy 22 -5.8 7 -13.9 53 53 NNW 6 9 30.3 1026 10 16.0934 0 0
4:15 pm 16:15 Cloudy 22 -5.6 7 -13.7 53 53 NNW 7 11 30.3 1026 10 16.0934 0 0
4:35 pm 16:35 Cloudy 23 -5.2 8 -13.4 53 53 NNW 6 9 30.27 1025 10 16.0934 0 0
4:55 pm 16:55 Cloudy 23 -5.1 8 -13.2 53 53 N 5 7 30.27 1025 10 16.0934 0 0
5:15 pm 17:15 Cloudy 23 -4.8 9 -13 53 53 N 5 7 30.27 1025 10 16.0934 0 0
5:35 pm 17:35 Cloudy 24 -4.6 9 -13 52 52 N 7 11 30.27 1025 10 16.0934 0 0
5:55 pm 17:55 Cloudy 24 -4.7 9 -12.9 53 53 N 6 9 30.27 1025 10 16.0934 0 0
6:15 pm 18:15 Cloudy 23 -4.8 9 -12.8 54 54 N 6 9 30.27 1025 10 16.0934 0 0
6:35 pm 18:35 Mostly Cloudy 23 -4.9 9 -12.6 55 55 NNE 3 6 30.27 1025 10 16.0934 0 0
6:55 pm 18:55 Partly Cloudy 23 -5 10 -12.5 56 56 Calm 30.27 1025 10 16.0934 0 0
7:15 pm 19:15 Partly Cloudy 23 -5.1 10 -12.5 56 56 E 3 6 30.27 1025 10 16.0934 0 0
7:35 pm 19:35 Partly Cloudy 22 -5.3 10 -12.5 57 57 SE 5 7 30.3 1026 10 16.0934 0 0
7:55 pm 19:55 Clear 22 -5.5 10 -12.3 59 59 SSE 3 6 30.3 1026 10 16.0934 0 0
8:15 pm 20:15 Mostly Cloudy 22 -5.5 10 -12.5 58 58 SSE 3 6 30.3 1026 10 16.0934 0 0
8:35 pm 20:35 Mostly Cloudy 22 -5.5 10 -12.1 60 60 Calm 30.3 1026 10 16.0934 0 0
8:55 pm 20:55 Partly Cloudy 22 -5.5 10 -12.1 60 60 S 3 6 30.3 1026 10 16.0934 0 0
9:15 pm 21:15 Partly Cloudy 22 -5.5 11 -11.9 61 61 S 3 6 30.3 1026 10 16.0934 0 0
9:35 pm 21:35 Clear 22 -5.5 11 -11.7 62 62 Calm 30.3 1026 10 16.0934 0 0
9:55 pm 21:55 Clear 22 -5.5 11 -11.4 64 64 S 3 6 30.3 1026 10 16.0934 0 0
10:15 pm 22:15 Clear 22 -5.5 11 -11.7 62 62 Calm 30.27 1025 10 16.0934 0 0
10:35 pm 22:35 Clear 22 -5.5 11 -11.5 63 63 Calm 30.27 1025 10 16.0934 0 0
10:55 pm 22:55 Clear 22 -5.6 11 -11.6 63 63 SSW 3 6 30.3 1026 10 16.0934 0 0
11:15 pm 23:15 Clear 22 -5.7 11 -11.5 64 64 SSW 3 6 30.3 1026 10 16.0934 0 0
11:35 pm 23:35 Clear 21 -6 11 -11.5 65 65 S 3 6 30.3 1026 10 16.0934 0 0
11:55 pm 23:55 Clear 21 -6.2 11 -11.6 66 66 SSW 5 7 30.3 1026 10 16.0934 0 0

Powered by AerisWeather